DLH914 EDDF-EGLL

Flight info

Callsign DLH914
Flight time N/A
Altitude 38000
Route OBOKA3W/25C OBOKA Z29 TORNU DCT ABNED L980 LOGAN
Aircraft A320/M-SDE2E3FGIJ1LORWXYZ/HB1

Departure

Time 2026-05-05 11:30
Airport Frankfurt Main Airport (EDDF)

Arrival

Time N/A
Airport London Heathrow Airport (EGLL)
Time Latitude Longitude Altitude Speed Heading
2026-05-05 11:04 50.04391 8.57032 360 ft 0 kts 159°
2026-05-05 11:04 50.04394 8.57031 360 ft 0 kts 160°
2026-05-05 11:23 50.04352 8.57055 362 ft 9 kts 159°
2026-05-05 11:23 50.04331 8.57135 364 ft 10 kts 75°
2026-05-05 11:23 50.04362 8.57257 363 ft 14 kts 70°
2026-05-05 11:24 50.04399 8.57417 364 ft 17 kts 69°
2026-05-05 11:24 50.04424 8.57522 361 ft 10 kts 70°
2026-05-05 11:24 50.04450 8.57630 366 ft 11 kts 70°
2026-05-05 11:24 50.04481 8.57761 366 ft 15 kts 70°
2026-05-05 11:25 50.04521 8.57928 366 ft 18 kts 69°
2026-05-05 11:25 50.04570 8.58133 365 ft 22 kts 70°
2026-05-05 11:25 50.04618 8.58332 370 ft 18 kts 69°
2026-05-05 11:25 50.04652 8.58517 369 ft 18 kts 98°
2026-05-05 11:26 50.04598 8.58584 373 ft 0 kts 159°
2026-05-05 11:27 50.04567 8.58603 373 ft 10 kts 160°
2026-05-05 11:27 50.04494 8.58592 370 ft 13 kts 219°
2026-05-05 11:27 50.04472 8.58525 370 ft 0 kts 249°
2026-05-05 11:29 50.04420 8.58309 370 ft 61 kts 249°
2026-05-05 11:29 50.04180 8.57301 371 ft 132 kts 250°
2026-05-05 11:29 50.03804 8.55690 549 ft 166 kts 251°
2026-05-05 11:30 50.03430 8.54034 1308 ft 164 kts 250°
2026-05-05 11:30 50.03039 8.52346 1985 ft 172 kts 249°
2026-05-05 11:30 50.02585 8.50522 2435 ft 190 kts 241°
2026-05-05 11:30 50.01695 8.48896 2889 ft 205 kts 215°
2026-05-05 11:31 50.00399 8.47974 3595 ft 207 kts 193°
2026-05-05 11:31 49.98975 8.47650 4344 ft 205 kts 188°
2026-05-05 11:31 49.97564 8.47357 5050 ft 206 kts 188°
2026-05-05 11:31 49.96139 8.47041 5704 ft 208 kts 189°
2026-05-05 11:32 49.94685 8.46497 6135 ft 224 kts 196°
2026-05-05 11:32 49.93113 8.45757 6452 ft 249 kts 202°
2026-05-05 11:32 49.91616 8.44330 7204 ft 257 kts 220°
2026-05-05 11:32 49.90428 8.42244 8209 ft 260 kts 236°
2026-05-05 11:33 49.89625 8.39719 9205 ft 263 kts 243°
2026-05-05 11:33 49.88958 8.37046 10153 ft 268 kts 253°
2026-05-05 11:33 49.88709 8.34108 10765 ft 287 kts 270°
2026-05-05 11:33 49.88883 8.30928 11202 ft 306 kts 274°
2026-05-05 11:34 49.89198 8.27552 11553 ft 329 kts 285°
2026-05-05 11:34 49.90225 8.24295 12120 ft 342 kts 302°
2026-05-05 11:34 49.91628 8.21285 12942 ft 346 kts 304°
2026-05-05 11:34 49.93053 8.18251 13746 ft 350 kts 304°
2026-05-05 11:35 49.94634 8.15339 14416 ft 356 kts 314°
2026-05-05 11:35 49.96506 8.12781 15088 ft 361 kts 318°
2026-05-05 11:35 49.98419 8.10230 15763 ft 364 kts 318°
2026-05-05 11:35 50.00356 8.07649 16445 ft 369 kts 317°
2026-05-05 11:36 50.02308 8.05043 17106 ft 373 kts 317°
2026-05-05 11:36 50.04287 8.02392 17779 ft 377 kts 317°
2026-05-05 11:36 50.06252 7.99760 18404 ft 380 kts 317°
2026-05-05 11:36 50.08265 7.97063 18985 ft 384 kts 317°
2026-05-05 11:37 50.10295 7.94336 19572 ft 387 kts 317°
2026-05-05 11:37 50.12338 7.91580 20148 ft 390 kts 317°
2026-05-05 11:37 50.14399 7.88801 20730 ft 393 kts 317°
2026-05-05 11:37 50.16479 7.86000 21293 ft 396 kts 317°
2026-05-05 11:38 50.18573 7.83180 21849 ft 399 kts 317°
2026-05-05 11:38 50.20682 7.80333 22410 ft 403 kts 317°
2026-05-05 11:38 50.22811 7.77450 22955 ft 407 kts 317°
2026-05-05 11:38 50.25021 7.74662 23454 ft 412 kts 324°
2026-05-05 11:39 50.27517 7.72410 23917 ft 417 kts 334°
2026-05-05 11:39 50.30179 7.70586 24374 ft 420 kts 335°
2026-05-05 11:39 50.32865 7.68755 24818 ft 422 kts 334°
2026-05-05 11:39 50.35569 7.66908 25274 ft 425 kts 334°
2026-05-05 11:40 50.38288 7.65048 25713 ft 428 kts 334°
2026-05-05 11:40 50.41023 7.63169 26149 ft 430 kts 334°
2026-05-05 11:40 50.43770 7.61277 26623 ft 433 kts 333°
2026-05-05 11:40 50.46535 7.59370 27054 ft 435 kts 333°
2026-05-05 11:41 50.49313 7.57450 27468 ft 438 kts 333°
2026-05-05 11:41 50.52107 7.55517 27883 ft 440 kts 333°
2026-05-05 11:41 50.54911 7.53559 28304 ft 442 kts 331°
2026-05-05 11:41 50.57578 7.51171 28708 ft 441 kts 323°
2026-05-05 11:42 50.60155 7.48535 29108 ft 443 kts 323°
2026-05-05 11:42 50.62745 7.45882 29525 ft 445 kts 323°
2026-05-05 11:42 50.65350 7.43212 29940 ft 447 kts 323°
2026-05-05 11:42 50.67956 7.40538 30322 ft 448 kts 322°
2026-05-05 11:43 50.70568 7.37826 30641 ft 449 kts 320°
2026-05-05 11:43 50.72958 7.34708 30943 ft 445 kts 310°
2026-05-05 11:43 50.75008 7.31072 31240 ft 442 kts 302°
2026-05-05 11:43 50.76683 7.27039 31605 ft 436 kts 294°
2026-05-05 11:44 50.78073 7.22800 32031 ft 434 kts 292°
2026-05-05 11:44 50.79431 7.18625 32458 ft 432 kts 292°
2026-05-05 11:44 50.80803 7.14413 32888 ft 431 kts 291°
2026-05-05 11:44 50.82176 7.10197 33315 ft 430 kts 291°
2026-05-05 11:45 50.83538 7.06005 33743 ft 428 kts 291°
2026-05-05 11:45 50.84895 7.01810 34119 ft 428 kts 291°
2026-05-05 11:45 50.86250 6.97612 34428 ft 428 kts 291°
2026-05-05 11:45 50.87605 6.93413 34742 ft 429 kts 291°
2026-05-05 11:46 50.88961 6.89207 35047 ft 429 kts 291°
2026-05-05 11:46 50.90317 6.84998 35335 ft 429 kts 291°
2026-05-05 11:46 50.91671 6.80787 35614 ft 429 kts 291°
2026-05-05 11:46 50.93021 6.76567 35910 ft 430 kts 291°
2026-05-05 11:47 50.94373 6.72331 36226 ft 430 kts 291°
2026-05-05 11:47 50.95721 6.68108 36505 ft 430 kts 292°
2026-05-05 11:47 50.97072 6.63874 36768 ft 430 kts 292°
2026-05-05 11:47 50.98420 6.59645 37036 ft 430 kts 292°
2026-05-05 11:48 51.01110 6.51142 37499 ft 432 kts 292°
2026-05-05 11:48 51.02453 6.46877 37737 ft 432 kts 292°
2026-05-05 11:48 51.03799 6.42603 37871 ft 432 kts 292°
2026-05-05 11:49 51.06490 6.34074 37889 ft 432 kts 292°
2026-05-05 11:49 51.09172 6.25534 37890 ft 431 kts 292°
2026-05-05 11:50 51.11825 6.17037 37891 ft 431 kts 292°
2026-05-05 11:50 51.14269 6.08340 37890 ft 428 kts 282°
2026-05-05 11:51 51.15771 5.99202 37893 ft 427 kts 280°
2026-05-05 11:51 51.17255 5.90040 37895 ft 427 kts 280°
2026-05-05 11:52 51.18979 5.80906 37904 ft 431 kts 289°
2026-05-05 11:52 51.21324 5.72108 37920 ft 430 kts 289°
2026-05-05 11:53 51.23639 5.63317 37929 ft 430 kts 289°
2026-05-05 11:53 51.25806 5.54526 37946 ft 427 kts 281°
2026-05-05 11:54 51.27677 5.45519 37957 ft 429 kts 282°
2026-05-05 11:54 51.30090 5.36737 37910 ft 434 kts 289°
2026-05-05 11:55 51.32833 5.28157 37983 ft 433 kts 288°
2026-05-05 11:55 51.35455 5.19700 38017 ft 417 kts 288°
2026-05-05 11:56 51.37951 5.11330 37906 ft 417 kts 287°
2026-05-05 11:56 51.40447 5.02948 37922 ft 417 kts 287°
2026-05-05 11:57 51.42903 4.94543 38125 ft 416 kts 286°
2026-05-05 11:57 51.45206 4.85951 37938 ft 424 kts 284°
2026-05-05 11:58 51.46246 4.81532 37827 ft 425 kts 282°
2026-05-05 11:58 51.46972 4.78218 37780 ft 425 kts 281°
2026-05-05 11:58 51.47103 4.77595 37739 ft 416 kts 288°
2026-05-05 11:59 51.47545 4.75534 37557 ft 399 kts 286°
2026-05-05 12:00 51.48198 4.72838 37483 ft 373 kts 289°
2026-05-05 12:00 51.49183 4.69098 36674 ft 345 kts 289°
2026-05-05 12:00 51.50125 4.65757 36045 ft 323 kts 290°
2026-05-05 12:00 51.51090 4.62416 35553 ft 344 kts 289°
2026-05-05 12:01 51.52144 4.58806 35113 ft 360 kts 290°
2026-05-05 12:01 51.53242 4.55147 35036 ft 370 kts 291°
2026-05-05 12:01 51.54446 4.51465 35113 ft 385 kts 296°
2026-05-05 12:01 51.55909 4.47782 35270 ft 396 kts 297°
2026-05-05 12:02 51.57388 4.43990 35445 ft 406 kts 299°
2026-05-05 12:02 51.58948 4.40148 35614 ft 415 kts 300°
2026-05-05 12:02 51.60569 4.36273 35822 ft 419 kts 296°
2026-05-05 12:02 51.61881 4.32077 35994 ft 423 kts 290°
2026-05-05 12:03 51.63108 4.27735 36176 ft 429 kts 290°
2026-05-05 12:03 51.64260 4.23370 37059 ft 413 kts 287°
2026-05-05 12:03 51.65099 4.19079 38227 ft 396 kts 284°
2026-05-05 12:03 51.65862 4.14681 37870 ft 411 kts 283°
2026-05-05 12:04 51.66556 4.10210 38085 ft 416 kts 279°
2026-05-05 12:04 51.67096 4.05602 38143 ft 420 kts 277°
2026-05-05 12:04 51.67596 4.00961 38424 ft 421 kts 278°
2026-05-05 12:04 51.68174 3.96346 38837 ft 419 kts 279°
2026-05-05 12:05 51.69138 3.87010 38821 ft 423 kts 277°
2026-05-05 12:05 51.69612 3.82372 38508 ft 417 kts 277°
2026-05-05 12:05 51.70077 3.77807 38355 ft 409 kts 278°
2026-05-05 12:06 51.70584 3.73235 38186 ft 417 kts 278°
2026-05-05 12:06 51.71093 3.68603 38032 ft 421 kts 276°
2026-05-05 12:06 51.71381 3.63913 37877 ft 421 kts 270°
2026-05-05 12:06 51.71369 3.59205 37729 ft 419 kts 264°